This demonstration page uses our WeatherBlox Daily Observations layout. Learn more.

39.29038, -76.61219

Hourly Observations for July 20, 2018

Temp ( °F °C ) Dew Point ( °F °C ) Humidity (%) Winds ( mph kmh ) Pressure ( in mb ) Visibility ( mi km ) Precip ( " mm )
12:54 am 00:54 undefined 76 24.4 63 17.2 64 64 undefined N/A 30.11 1020 N/A 0 0
1:54 am 01:54 undefined 76 24.4 64 17.8 67 67 undefined N/A 30.11 1020 N/A 0 0
2:54 am 02:54 undefined 76 24.4 64 17.8 67 67 undefined N/A 30.11 1020 N/A 0 0
3:54 am 03:54 undefined 75 23.9 64 17.8 69 69 undefined N/A 30.11 1020 N/A 0 0
4:54 am 04:54 undefined 74 23.3 64 17.8 71 71 undefined N/A 30.11 1020 N/A 0 0
5:54 am 05:54 undefined 74 23.3 64 17.8 71 71 undefined N/A 30.11 1020 N/A 0 0
6:54 am 06:54 undefined 76 24.4 65 18.3 69 69 undefined N/A 30.12 1020 N/A 0 0
7:54 am 07:54 undefined 77 25 65 18.3 66 66 undefined N/A 30.13 1020 N/A 0 0
8:54 am 08:54 undefined 79 26.1 67 19.4 67 67 undefined N/A 30.14 1021 N/A 0 0
9:54 am 09:54 undefined 82 27.8 66 18.9 58 58 undefined N/A 30.13 1020 N/A 0 0
10:54 am 10:54 undefined 83 28.3 66 18.9 57 57 undefined N/A 30.13 1020 N/A 0 0
11:54 am 11:54 undefined 85 29.4 62 16.7 46 46 undefined N/A 30.13 1020 N/A 0 0
12:54 pm 12:54 undefined 85 29.4 57 13.9 39 39 undefined N/A 30.12 1020 N/A 0 0
1:54 pm 13:54 undefined 84 28.9 53 11.7 34 34 undefined N/A 30.11 1020 N/A 0 0
2:54 pm 14:54 undefined 87 30.6 56 13.3 35 35 undefined N/A 30.09 1019 N/A 0 0
3:54 pm 15:54 undefined 87 30.6 57 13.9 36 36 undefined N/A 30.07 1018 N/A 0 0
4:54 pm 16:54 undefined 84 28.9 57 13.9 40 40 undefined N/A 30.06 1018 N/A 0 0
5:54 pm 17:54 undefined 84 28.9 58 14.4 41 41 undefined N/A 30.04 1017 N/A 0 0
6:54 pm 18:54 undefined 84 28.9 57 13.9 40 40 undefined N/A 30.04 1017 N/A 0 0
7:54 pm 19:54 undefined 81 27.2 63 17.2 54 54 undefined N/A 30.05 1018 N/A 0 0
8:54 pm 20:54 undefined 79 26.1 64 17.8 60 60 undefined N/A 30.05 1018 N/A 0 0
9:54 pm 21:54 undefined 78 25.6 64 17.8 62 62 undefined N/A 30.06 1018 N/A 0 0
10:54 pm 22:54 undefined 77 25 65 18.3 66 66 undefined N/A 30.06 1018 N/A 0 0
11:54 pm 23:54 undefined 76 24.4 64 17.8 67 67 undefined N/A 30.06 1018 N/A 0 0

Powered by AerisWeather